Camp Douglas, WI

7:18 PM CDT on September 28, 2016 (GMT -0500)
Volk

Weather History for KVOK - July, 2014

Change the Weather History Date:

Wednesday, July 9, 2014

  Actual Average Record
Temperature  
Mean Temperature 62 °F -  
Max Temperature 75 °F 78 °F 93 °F (2001)
Min Temperature 52 °F 62 °F 44 °F (2015)
Degree Days  
Heating Degree Days 2    
Growing Degree Days 12 (Base 50)    
Moisture  
Dew Point 55 °F    
Average Humidity 83    
Maximum Humidity 100    
Minimum Humidity 50    
Precipitation  
Precipitation 0.00 in - - ()
Sea Level Pressure  
Sea Level Pressure 29.98 in    
Wind  
Wind Speed 7 mph (NW)    
Max Wind Speed 14 mph    
Max Gust Speed 21 mph    
Visibility 9 miles    
Events      
Averages and records for this station are not official NWS values.
T = Trace of Precipitation, MM = Missing Value Source: NWS Daily Summary

Daily Weather History Graph

Daily Weather History Graph

Search for Another Location

Airport or City:

Trip Planner

Search our weather history database for the weather conditions in past years. The results will help you decide how hot, cold, wet, or windy it might be!

Date:

Astronomy

Jul. 09, 2014 Rise Set
Actual Time 5:27 AM CDT 8:44 PM CDT
Civil Twilight 4:51 AM CDT 9:20 PM CDT
Nautical Twilight 4:05 AM CDT 10:06 PM CDT
Astronomical Twilight 3:08 AM CDT 11:02 PM CDT
Moon 5:53 PM CDT (7/9) 2:48 AM CDT (7/9)
Length of Visible Light 16h 28m
Length of Day
15h 17m
Waxing Gibbous, 89% of the Moon is Illuminated
Jul 9
Waxing Gibbous
Jul 12
Full
Jul 18
Last Quarter
Jul 26
New
Aug 3
First Quarter

Hourly Weather History & Observations

Time (CDT) Temp. Dew Point Humidity Pressure Visibility Wind Dir Wind Speed Gust Speed Precip Events Conditions
12:58 AM 54.1 °F 54.1 °F 100% 29.87 in 10.0 mi West 5.8 mph - N/A   Clear
1:58 AM 52.9 °F 52.9 °F 100% 29.87 in 10.0 mi West 6.9 mph - N/A   Clear
2:58 AM 54.5 °F 54.5 °F 100% 29.88 in 10.0 mi WNW 4.6 mph - N/A   Partly Cloudy
3:33 AM 55.4 °F 55.4 °F 100% 29.88 in 10.0 mi WNW 5.8 mph - N/A   Mostly Cloudy
3:58 AM 55.8 °F 55.8 °F 100% 29.89 in 10.0 mi West 5.8 mph - N/A   Overcast
4:23 AM 57.2 °F 57.2 °F 100% 29.89 in 10.0 mi West 5.8 mph - N/A   Scattered Clouds
4:58 AM 54.5 °F 54.5 °F 100% 29.91 in 10.0 mi WNW 4.6 mph - N/A   Clear
5:58 AM 53.4 °F 53.4 °F 100% 29.93 in 10.0 mi WNW 5.8 mph - N/A   Partly Cloudy
6:08 AM 55.4 °F 55.4 °F 100% 29.93 in 10.0 mi WNW 5.8 mph - N/A   Mostly Cloudy
6:33 AM 57.2 °F 57.2 °F 100% 29.94 in 10.0 mi NW 10.4 mph - N/A   Overcast
6:58 AM 59.0 °F 59.0 °F 100% 29.96 in 10.0 mi WNW 9.2 mph - N/A   Mostly Cloudy
7:58 AM 59.0 °F 59.0 °F 100% 29.97 in 10.0 mi NW 10.4 mph - N/A   Mostly Cloudy
8:09 AM 60.8 °F 59.0 °F 94% 29.96 in 10.0 mi NW 10.4 mph - N/A   Scattered Clouds
8:58 AM 64.4 °F 57.2 °F 77% 29.98 in 10.0 mi NW 10.4 mph - N/A   Partly Cloudy
9:58 AM 66.2 °F 51.8 °F 60% 29.99 in 10.0 mi NW 13.8 mph 19.6 mph N/A   Partly Cloudy
10:58 AM 68.0 °F 50.0 °F 52% 30.00 in 10.0 mi NW 12.7 mph 20.7 mph N/A   Partly Cloudy
11:58 AM 71.6 °F 51.8 °F 50% 30.01 in 10.0 mi WNW 12.7 mph 20.7 mph N/A   Partly Cloudy
12:58 PM 71.6 °F 51.8 °F 50% 30.01 in 10.0 mi NW 13.8 mph 19.6 mph N/A   Scattered Clouds
1:58 PM 71.6 °F 51.8 °F 50% 30.01 in 10.0 mi NW 9.2 mph - N/A   Mostly Cloudy
2:58 PM 73.4 °F 53.6 °F 50% 30.02 in 10.0 mi WNW 9.2 mph - N/A   Mostly Cloudy
3:58 PM 71.6 °F 53.6 °F 53% 30.02 in 10.0 mi NNW 8.1 mph - N/A   Mostly Cloudy
4:58 PM 73.4 °F 53.6 °F 50% 30.02 in 10.0 mi NW 5.8 mph - N/A   Mostly Cloudy
5:58 PM 71.6 °F 53.6 °F 53% 30.02 in 10.0 mi North 6.9 mph - N/A   Scattered Clouds
6:58 PM 73.4 °F 55.4 °F 53% 30.01 in 10.0 mi NNW 4.6 mph - N/A   Partly Cloudy
7:58 PM 69.8 °F 59.0 °F 68% 30.03 in 10.0 mi Calm Calm - N/A   Partly Cloudy
8:58 PM 60.8 °F 59.0 °F 94% 30.04 in 10.0 mi Calm Calm - N/A   Partly Cloudy
9:58 PM 57.2 °F 57.2 °F 100% 30.05 in 10.0 mi Calm Calm - N/A   Clear
10:58 PM 53.6 °F 53.6 °F 100% 30.07 in 10.0 mi Calm Calm - N/A   Clear
11:45 PM 53.6 °F 53.6 °F 100% 30.06 in 3.0 mi ESE 2.3 mph - N/A   Clear
11:50 PM 53.6 °F 53.6 °F 100% 30.06 in 3.0 mi East 3.5 mph - N/A   Clear
11:55 PM 53.6 °F 53.6 °F 100% 30.07 in 1.5 mi ESE 2.3 mph - N/A   Clear
11:58 PM 53.1 °F 53.1 °F 100% 30.08 in 1.5 mi East 2.3 mph - N/A   Clear